Cartersville, GA

7:00 PM EST on November 20, 2019 (GMT -0500)
Cartersville

Weather History for KVPC - September, 2019

Change the Weather History Date:

Monday, September 16, 2019

  Actual Average Record
Temperature  
Mean Temperature 84 °F 71 °F  
Max Temperature 99 °F 83 °F 91 °F (2016)
Min Temperature 68 °F 60 °F 46 °F (2000)
Degree Days  
Heating Degree Days 0 0  
Month to date heating degree days 0 0  
Since 1 July heating degree days 0 0  
Cooling Degree Days 18 7  
Month to date cooling degree days 266 145  
Year to date cooling degree days 1838 1410  
Growing Degree Days 34 (Base 50)    
Moisture  
Dew Point 64 °F    
Average Humidity 62    
Maximum Humidity 93    
Minimum Humidity 23    
Precipitation  
Precipitation 0.00 in 0.13 in 3.61 in (2004)
Month to date precipitation 0.01 1.79  
Year to date precipitation 31.55 36.38  
Sea Level Pressure  
Sea Level Pressure 30.03 in    
Wind  
Wind Speed 1 mph ()    
Max Wind Speed 13 mph    
Max Gust Speed 16 mph    
Visibility 8.9 miles    
Events      
T = Trace of Precipitation, MM = Missing Value Source: Averaged Metar Reports

Daily Weather History Graph

Daily Weather History Graph

Search for Another Location

Airport or City:

Astronomy

Sep. 16, 2019 Rise Set
Actual Time 7:23 AM EDT 7:44 PM EDT
Civil Twilight 6:58 AM EDT 8:09 PM EDT
Nautical Twilight 6:28 AM EDT 8:39 PM EDT
Astronomical Twilight 5:58 AM EDT 9:09 PM EDT
Moon 9:24 PM EDT (9/16) 9:25 AM EDT (9/16)
Length of Visible Light 13h 11m
Length of Day
12h 21m
Waning Gibbous, 94% of the Moon is Illuminated
Sep 16
Waning Gibbous
Sep 21
Last Quarter
Sep 28
New
Oct 5
First Quarter
Oct 13
Full

Hourly Weather History & Observations

Time (EDT) Temp. Heat Index Dew Point Humidity Pressure Visibility Wind Dir Wind Speed Gust Speed Precip Events Conditions
12:53 AM 73.0 °F - 68.0 °F 84% 30.07 in 10.0 mi Calm Calm - N/A   Clear
1:53 AM 71.1 °F - 68.0 °F 90% 30.06 in 9.0 mi Calm Calm - N/A   Clear
2:53 AM 70.0 °F - 66.9 °F 90% 30.06 in 8.0 mi Calm Calm - N/A   Clear
3:53 AM 70.0 °F - 66.9 °F 90% 30.05 in 7.0 mi Calm Calm - N/A   Clear
4:53 AM 70.0 °F - 66.9 °F 90% 30.06 in 7.0 mi Calm Calm - N/A   Clear
5:53 AM 68.0 °F - 66.0 °F 93% 30.06 in 5.0 mi Calm Calm - N/A   Clear
6:53 AM 69.1 °F - 66.0 °F 90% 30.08 in 5.0 mi Calm Calm - N/A   Clear
7:53 AM 68.0 °F - 66.0 °F 93% 30.10 in 5.0 mi Calm Calm - N/A   Clear
8:53 AM 73.0 °F - 69.1 °F 87% 30.10 in 7.0 mi Calm Calm - N/A   Clear
9:53 AM 81.0 °F 84.4 °F 70.0 °F 69% 30.11 in 10.0 mi North 3.5 mph - N/A   Clear
10:53 AM 86.0 °F 90.1 °F 69.1 °F 57% 30.10 in 10.0 mi North 3.5 mph - N/A   Clear
11:53 AM 89.1 °F 92.9 °F 68.0 °F 50% 30.08 in 10.0 mi Variable 3.5 mph - N/A   Clear
12:53 PM 93.9 °F 96.1 °F 64.9 °F 38% 30.06 in 10.0 mi NNE 6.9 mph - N/A   Clear
1:53 PM 96.1 °F 96.4 °F 61.0 °F 31% 30.03 in 10.0 mi North - - N/A   Clear
2:53 PM 98.1 °F 96.8 °F 57.0 °F 25% 30.01 in 10.0 mi Variable 3.5 mph 16.1 mph N/A   Clear
3:53 PM 99.0 °F 98.1 °F 57.9 °F 25% 29.97 in 10.0 mi NNE 9.2 mph - N/A   Clear
4:53 PM 98.1 °F 96.4 °F 55.9 °F 24% 29.96 in 10.0 mi Variable 3.5 mph - N/A   Clear
5:53 PM 97.0 °F 94.6 °F 54.0 °F 23% 29.96 in 10.0 mi NNW 6.9 mph - N/A   Clear
6:53 PM 93.9 °F 92.9 °F 57.9 °F 30% 29.96 in 10.0 mi Variable 3.5 mph - N/A   Clear
7:53 PM 88.0 °F 87.6 °F 60.1 °F 39% 29.96 in 10.0 mi Calm Calm - N/A   Clear
8:53 PM 78.1 °F - 62.1 °F 58% 29.97 in 10.0 mi SE 3.5 mph - N/A   Clear
9:53 PM 75.0 °F - 63.0 °F 66% 29.98 in 10.0 mi Calm Calm - N/A   Clear
10:53 PM 73.9 °F - 63.0 °F 68% 29.99 in 10.0 mi Calm Calm - N/A   Clear
11:53 PM 73.0 °F - 62.1 °F 68% 29.99 in 10.0 mi Calm Calm - N/A   Clear